Home > Time Zones > World Clock > Weather > Russia > Perm > Past weeks

Flag for Russia Weather past 2 weeks in Perm, Russia

Now
50 °F

Clear.


Feels Like: 50 °F
Forecast: 51 / 64 °F
Wind: 1 mph from North

Location: Perm'/Bolshoe Savino

Current Time: Jul 24, 2014 at 5:54:14 AM

Latest Report: Jul 24, 2014 at 5:30 AM


Visibility: 10 mi

Pressure: 29.77 "Hg

Humidity: 88%

Dew point: 46 °F

Location of PermLocation

Historic Weather in Perm — Graph

°F

Perm temperature yesterday

Maximum temperature yesterday: 72 °F (at 4:00 PM)
Minimum temperature yesterday: 57 °F (at 6:30 AM)
Average temperature yesterday: 64 °F

Past Weeks' High & Low Weather Summary

 TemperatureHumidityPressure
High82 °F (Jul 16, 5:30 PM)100% (Jul 9, 4:00 AM)30.07 "Hg (Jul 9, 4:00 AM)
Low41 °F (Jul 12, 6:00 AM)33% (Jul 14, 3:30 PM)29.50 "Hg (Jul 23, 5:00 AM)
Average57 °F74%29.85 "Hg
* Reported Jul 9 4:00 AM — Jul 24 4:30 AM, Perm, Weather by CustomWeather, © 2014

Note: Actual official high and low records may vary slightly from our data, if they occured in-between our weather recording intervals... More about our weather records

Advertising

Perm weather history for previous 24 hours

 ConditionsComfort  
Time TempWeatherWind HumidityBarometerVisibility
4:30 AM
Jul 24
52 °FClear.3 mph88%29.74 "Hg10 mi
4:00 AM52 °FClear.3 mph88%29.74 "Hg10 mi
3:30 AM54 °FClear.3 mph82%29.74 "Hg10 mi
3:00 AM55 °FClear.3 mph72%29.74 "Hg10 mi
2:30 AM55 °FClear.3 mph77%29.71 "Hg10 mi
2:00 AM55 °FClear.6 mph77%29.71 "Hg10 mi
1:30 AM55 °FClear.3 mph77%29.71 "Hg10 mi
1:00 AM57 °FClear.6 mph72%29.71 "Hg10 mi
12:30 AM57 °FClear.3 mph72%29.71 "Hg10 mi
12:00 AM59 °FClear.3 mph68%29.71 "Hg10 mi
11:30 PM
Jul 23
61 °FClear.1 mph63%29.71 "Hg10 mi
11:00 PM63 °FClear.3 mph56%29.71 "Hg10 mi
10:30 PM64 °FSunny.6 mph52%29.68 "Hg10 mi
10:00 PM66 °FPassing clouds.6 mph49%29.68 "HgN/A
9:30 PM68 °FSunny.8 mph46%29.68 "Hg10 mi
9:00 PM68 °FSunny.10 mph49%29.68 "Hg10 mi
8:30 PM70 °FSunny.8 mph53%29.68 "Hg10 mi
8:00 PM72 °FSunny.13 mph47%29.65 "Hg10 mi
7:30 PM70 °FSunny.13 mph50%29.65 "Hg10 mi
7:00 PM72 °FSunny.8 mph47%29.65 "Hg10 mi
5:00 PM72 °FSunny.17 mph50%29.62 "Hg10 mi
4:00 PM72 °FPartly sunny.13 mph53%29.62 "HgN/A
3:30 PM68 °FSunny.10 mph60%29.59 "Hg10 mi
3:00 PM68 °FSunny.15 mph60%29.59 "Hg10 mi
11:30 AM63 °FSunny.15 mph77%29.53 "Hg10 mi
11:00 AM61 °FSunny.10 mph83%29.53 "Hg10 mi
10:30 AM61 °FPartly sunny.10 mph77%29.53 "HgN/A
10:00 AM59 °FMostly cloudy.13 mph82%29.53 "HgN/A
9:30 AM59 °FMostly cloudy.10 mph82%29.53 "HgN/A
8:30 AM59 °FMostly cloudy.8 mph88%29.50 "HgN/A
8:00 AM57 °FMostly cloudy.8 mph94%29.50 "HgN/A
7:30 AM57 °FMostly cloudy.8 mph94%29.50 "Hg6 mi
7:00 AM57 °FMostly cloudy.8 mph94%29.50 "Hg6 mi
6:30 AM57 °FSprinkles. Mostly cloudy.10 mph94%29.50 "Hg4 mi
6:00 AM59 °FSprinkles. Mostly cloudy.10 mph88%29.50 "Hg6 mi
5:00 AM59 °FSprinkles. Mostly cloudy.10 mph88%29.50 "HgN/A
Weather by CustomWeather, © 2014

See weather overviewHow to use our weather pages